Weather History for Corning, AR

Change the Weather History Date:

Monday, February 4, 2013

  Actual Average (KARG) Record (KARG)
Temperature  
Mean Temperature 40 °F -  
Max Temperature 44 °F 45 °F 73 °F (2008)
Min Temperature 35 °F 31 °F 17 °F (2009)
Degree Days  
Heating Degree Days 26    
Moisture  
Dew Point 35 °F    
Average Humidity 82    
Maximum Humidity 100    
Minimum Humidity 61    
Precipitation  
Precipitation 0.03 in - - ()
Sea Level Pressure  
Sea Level Pressure 29.96 in    
Wind  
Wind Speed 9 mph (SSW)    
Max Wind Speed 17 mph    
Max Gust Speed 24 mph    
Visibility 9 miles    
Events Fog , Rain    
Averages and records for this station are not official NWS values.
T = Trace of Precipitation, MM = Missing Value Source: NWS Daily Summary

Daily Weather History Graph

Daily Weather History Graph

Search for Another Location

Airport:

Trip Planner

Search our weather history database for the weather conditions in past years. The results will help you decide how hot, cold, wet, or windy it might be!

Date:

Astronomy

Feb. 04, 2013 Rise Set
Actual Time 7:01 AM CST 5:32 PM CST
Civil Twilight 6:34 AM CST 5:59 PM CST
Nautical Twilight 6:03 AM CST 6:29 PM CST
Astronomical Twilight 5:33 AM CST 7:00 PM CST
Moon 1:35 AM CST (2/4) 11:58 AM CST (2/4)
Length of Visible Light 11h 24m
Length of Day
10h 31m
Last Quarter, 37% of the Moon is Illuminated
Feb 4
Last Quarter
Feb 10
New
Feb 17
First Quarter
Feb 25
Full
Mar 4
Last Quarter

Hourly Weather History & Observations

Time (CST) Temp. Windchill Dew Point Humidity Pressure Visibility Wind Dir Wind Speed Gust Speed Precip Events Conditions
12:15 AM 37.4 °F 30.8 °F 28.4 °F 70% 30.08 in 10.0 mi SE 9.2 mph - N/A   Clear
12:35 AM 37.4 °F 30.8 °F 28.4 °F 70% 30.07 in 10.0 mi SSE 9.2 mph - N/A   Clear
12:55 AM 37.4 °F 31.4 °F 26.6 °F 65% 30.07 in 10.0 mi SSE 8.1 mph - N/A   Clear
1:15 AM 37.4 °F 31.4 °F 26.6 °F 65% 30.06 in 10.0 mi SSE 8.1 mph - N/A   Clear
1:55 AM 37.4 °F 32.1 °F 28.4 °F 70% 30.05 in 10.0 mi SSE 6.9 mph - N/A   Clear
2:15 AM 37.4 °F 32.8 °F 28.4 °F 70% 30.05 in 10.0 mi SSE 5.8 mph - N/A   Clear
2:35 AM 39.2 °F 35.0 °F 26.6 °F 61% 30.04 in 10.0 mi South 5.8 mph - N/A   Clear
2:55 AM 39.2 °F 34.2 °F 26.6 °F 61% 30.03 in 10.0 mi SSE 6.9 mph - N/A   Clear
3:15 AM 37.4 °F 31.4 °F 28.4 °F 70% 30.02 in 10.0 mi South 8.1 mph - N/A   Clear
4:55 AM 39.2 °F 35.9 °F 30.2 °F 70% 29.98 in 10.0 mi SSW 4.6 mph - N/A   Clear
5:35 AM 39.2 °F 33.0 °F 28.4 °F 65% 29.97 in 10.0 mi South 9.2 mph - N/A   Clear
5:55 AM 39.2 °F 33.6 °F 30.2 °F 70% 29.96 in 10.0 mi SSW 8.1 mph - N/A   Clear
6:15 AM 39.2 °F 33.0 °F 30.2 °F 70% 29.97 in 10.0 mi SW 9.2 mph - N/A   Clear
6:35 AM 39.2 °F 33.6 °F 30.2 °F 70% 29.98 in 10.0 mi SSW 8.1 mph - N/A   Partly Cloudy
6:55 AM 39.2 °F 33.6 °F 32.0 °F 75% 29.98 in 10.0 mi SW 8.1 mph - N/A   Scattered Clouds
7:15 AM 39.2 °F 34.2 °F 32.0 °F 75% 29.96 in 10.0 mi South 6.9 mph - N/A   Partly Cloudy
7:35 AM 41.0 °F 38.0 °F 30.2 °F 65% 29.97 in 10.0 mi SW 4.6 mph - N/A   Partly Cloudy
7:55 AM 41.0 °F 35.2 °F 32.0 °F 70% 29.99 in 10.0 mi WSW 9.2 mph - N/A   Clear
8:15 AM 41.0 °F 35.2 °F 32.0 °F 70% 29.99 in 10.0 mi WSW 9.2 mph - N/A   Partly Cloudy
8:35 AM 42.8 °F 37.0 °F 32.0 °F 66% 29.99 in 10.0 mi SW 10.4 mph - N/A   Clear
8:55 AM 44.6 °F 39.2 °F 32.0 °F 61% 29.99 in 10.0 mi SW 10.4 mph - N/A   Clear
9:15 AM 44.6 °F 38.4 °F 32.0 °F 61% 30.00 in 10.0 mi SW 12.7 mph - N/A   Clear
9:35 AM 44.6 °F 37.2 °F 32.0 °F 61% 29.99 in 7.0 mi SSW 17.3 mph 20.7 mph N/A Rain Light Rain
9:55 AM 42.8 °F 34.8 °F 33.8 °F 70% 30.00 in 7.0 mi SW 17.3 mph 24.2 mph 0.01 in Rain Light Rain
10:15 AM 42.8 °F 35.8 °F 35.6 °F 76% 30.00 in 7.0 mi SSW 13.8 mph - N/A Rain Light Rain
10:35 AM 42.8 °F 35.4 °F 35.6 °F 76% 29.99 in 7.0 mi SSW 15.0 mph - N/A Rain Light Rain
10:55 AM 42.8 °F 35.4 °F 35.6 °F 76% 29.99 in 5.0 mi SSW 15.0 mph 19.6 mph 0.01 in Rain Light Rain
11:15 AM 42.8 °F 36.2 °F 37.4 °F 81% 29.98 in 5.0 mi SSW 12.7 mph - N/A Rain Light Rain
11:35 AM 42.8 °F 36.2 °F 37.4 °F 81% 29.97 in 6.0 mi SSW 12.7 mph - 0.01 in Rain Light Rain
11:55 AM 42.8 °F 36.6 °F 37.4 °F 81% 29.96 in 5.0 mi SSW 11.5 mph - 0.01 in Rain Light Rain
12:15 PM 41.0 °F 35.8 °F 37.4 °F 87% 29.96 in 9.0 mi SW 8.1 mph - N/A Rain Light Rain
12:55 PM 41.0 °F 35.2 °F 39.2 °F 93% 29.95 in 9.0 mi SW 9.2 mph - N/A Rain Light Rain
1:15 PM 42.8 °F 36.6 °F 39.2 °F 87% 29.93 in 10.0 mi SSW 11.5 mph - N/A   Scattered Clouds
1:35 PM 44.6 °F 38.4 °F 39.2 °F 81% 29.92 in 10.0 mi SSW 12.7 mph - N/A   Partly Cloudy
1:55 PM 44.6 °F 38.1 °F 41.0 °F 87% 29.91 in 10.0 mi SSW 13.8 mph - N/A   Partly Cloudy
2:15 PM 44.6 °F 38.1 °F 41.0 °F 87% 29.90 in 10.0 mi SW 13.8 mph - N/A   Partly Cloudy
2:35 PM 44.6 °F 39.2 °F 41.0 °F 87% 29.90 in 10.0 mi SW 10.4 mph - N/A   Mostly Cloudy
2:55 PM 44.6 °F 39.7 °F 41.0 °F 87% 29.90 in 10.0 mi South 9.2 mph - N/A   Overcast
3:15 PM 44.6 °F 39.7 °F 41.0 °F 87% 29.90 in 10.0 mi South 9.2 mph - N/A   Overcast
3:35 PM 44.6 °F 39.2 °F 41.0 °F 87% 29.90 in 10.0 mi SSW 10.4 mph - N/A   Overcast
3:55 PM 44.6 °F 38.8 °F 41.0 °F 87% 29.91 in 10.0 mi SW 11.5 mph - N/A   Overcast
4:15 PM 44.6 °F 40.2 °F 41.0 °F 87% 29.91 in 10.0 mi WSW 8.1 mph - N/A   Overcast
4:35 PM 44.6 °F 40.2 °F 41.0 °F 87% 29.91 in 10.0 mi SSW 8.1 mph - N/A   Overcast
4:55 PM 44.6 °F 39.2 °F 41.0 °F 87% 29.90 in 10.0 mi SSW 10.4 mph - N/A   Overcast
5:15 PM 44.6 °F 39.7 °F 41.0 °F 87% 29.90 in 10.0 mi SSW 9.2 mph - N/A   Overcast
5:35 PM 44.6 °F 39.7 °F 41.0 °F 87% 29.90 in 10.0 mi SSW 9.2 mph - N/A   Overcast
5:55 PM 44.6 °F 39.7 °F 39.2 °F 81% 29.90 in 10.0 mi SSW 9.2 mph - N/A   Mostly Cloudy
6:15 PM 41.0 °F 35.8 °F 39.2 °F 93% 29.90 in 10.0 mi SSW 8.1 mph - N/A   Partly Cloudy
6:35 PM 41.0 °F 35.8 °F 39.2 °F 93% 29.91 in 10.0 mi SSW 8.1 mph - N/A   Clear
6:55 PM 41.0 °F 36.4 °F 39.2 °F 93% 29.91 in 10.0 mi SSW 6.9 mph - N/A   Clear
7:15 PM 39.2 °F 34.2 °F 37.4 °F 93% 29.91 in 10.0 mi SSW 6.9 mph - N/A   Clear
7:35 PM 39.2 °F 35.9 °F 37.4 °F 93% 29.91 in 10.0 mi SSW 4.6 mph - N/A   Clear
7:55 PM 39.2 °F 35.9 °F 37.4 °F 93% 29.92 in 10.0 mi SSW 4.6 mph - N/A   Clear
8:15 PM 39.2 °F 37.0 °F 37.4 °F 93% 29.92 in 10.0 mi SSW 3.5 mph - N/A   Clear
8:35 PM 39.2 °F 35.0 °F 37.4 °F 93% 29.92 in 10.0 mi SSW 5.8 mph - N/A   Clear
8:55 PM 37.4 °F 32.1 °F 37.4 °F 100% 29.92 in 10.0 mi SSW 6.9 mph - N/A   Clear
9:15 PM 37.4 °F 32.1 °F 37.4 °F 100% 29.92 in 10.0 mi SW 6.9 mph - N/A   Clear
9:35 PM 37.4 °F 32.1 °F 37.4 °F 100% 29.92 in 10.0 mi SW 6.9 mph - N/A   Clear
9:55 PM 37.4 °F 32.8 °F 37.4 °F 100% 29.92 in 10.0 mi WSW 5.8 mph - N/A   Clear
10:15 PM 37.4 °F 32.1 °F 35.6 °F 93% 29.93 in 10.0 mi NW 6.9 mph - N/A   Clear
10:35 PM 37.4 °F 32.8 °F 37.4 °F 100% 29.94 in 7.0 mi WNW 5.8 mph - N/A   Clear
10:55 PM 37.4 °F 32.1 °F 37.4 °F 100% 29.94 in 4.0 mi WNW 6.9 mph - N/A   Clear
11:15 PM 37.4 °F 32.8 °F 37.4 °F 100% 29.94 in 1.0 mi WNW 5.8 mph - N/A   Clear
11:35 PM 35.6 °F 31.7 °F 35.6 °F 100% 29.94 in 0.2 mi WNW 4.6 mph - N/A Fog Fog
11:55 PM 35.6 °F - 35.6 °F 100% 29.94 in 0.2 mi Calm Calm - N/A Fog Fog